Tracking 19794 objects as of 22-Jul-2019
HD Live streaming from Space Station
objects crossing your sky now

THORAD AGENA D DEB

Track THORAD AGENA D DEB now!
10-day predictions


NORAD ID: 4651
Int'l Code: 1970-025AK
Perigee: 877.9 km
Apogee: 949.8 km
Inclination: 100.2 °
Period: 103.1 minutes
Semi major axis: 7284 km
RCS: 0.047 m2 (small)
Launch date: April 8, 1970
Source: United States (US)
Launch site: AIR FORCE WESTERN TEST RANGE (AFWTR)

Note: This is SATELLITE DEBRIS
aabbcc
Your satellite tracking list
Your tracking list is empty




NASA's NSSDC Master Catalog

Two Line Element Set (TLE):
1  4651U 70025AK  19202.46941589  .00000364  00000-0  30044-3 0  9997
2  4651 100.1717 214.3244 0049407 305.7133  53.9433 13.96279360483548
Source of the keplerian elements: AFSPC